Overview Statistics Trail Chart Weather Telemetry Raw packets
 

This is the latest recevied weather packets stored in our database for station/object N9BID. If no packets are shown the sender has not sent any weather packets the latest 10 day(s).

<< 3 4 5 6 7 8 9 >>
Time Temp. Humidity Pressure Rain* Wind** Luminosity Snow
1788543299 27.78° C 88% 1012.6 hPa 0 mm - 108 W/m² -
1788542995 27.22° C 90% 1012.4 hPa 0 mm - 168 W/m² -
1788542689 27.22° C 89% 1012.5 hPa 0 mm - 196 W/m² -
1788542384 27.22° C 89% 1012.6 hPa 0 mm - 235 W/m² -
1788542080 27.22° C 90% 1012.3 hPa 0 mm - 527 W/m² -
1788541776 27.22° C 89% 1012.6 hPa 0 mm - 669 W/m² -
1788541471 27.22° C 89% 1012.5 hPa 0 mm - 212 W/m² -
1788541166 27.78° C 88% 1012.5 hPa 0 mm - 223 W/m² -
1788540865 26.67° C 90% 1012.4 hPa 0 mm - 574 W/m² -
1788540565 26.67° C 91% 1012.4 hPa 0 mm - 391 W/m² -
1788540265 26.67° C 91% 1012.7 hPa 0 mm - 205 W/m² -
1788539961 26.67° C 90% 1012.7 hPa 0 mm - 153 W/m² -
1788539660 26.67° C 90% 1012.7 hPa 0 mm - 193 W/m² -
1788539359 27.22° C 88% 1012.6 hPa 0 mm - 672 W/m² -
1788539055 26.67° C 89% 1012.7 hPa 0 mm - 547 W/m² -
1788538750 26.67° C 90% 1012.6 hPa 0 mm - 455 W/m² -
1788538445 26.67° C 91% 1012.6 hPa 0 mm - 546 W/m² -
1788538141 26.67° C 91% 1012.7 hPa 0 mm - 582 W/m² -
1788537836 26.67° C 91% 1012.5 hPa 0 mm - 328 W/m² -
1788537531 26.67° C 91% 1012.5 hPa 0 mm - 536 W/m² -
1788537226 26.11° C 91% 1012.6 hPa 0 mm - 485 W/m² -
1788536924 26.11° C 92% 1012.5 hPa 0 mm - 456 W/m² -
1788536619 25.56° C 94% 1012.7 hPa 0 mm - 471 W/m² -
1788536315 25° C 94% 1012.7 hPa 0 mm - 473 W/m² -
1788536010 25° C 94% 1012.7 hPa 0 mm - 492 W/m² -

* Rain latest hour (hover to see other rain measurements)
** Current wind speed in m/s (hover to see current wind gust speed)